星链-35061(STARLINK-35061)

导读 | 豆包AI

STARLINK-35061是美国于2025年10月26日发射的星链低轨互联网卫星,隶属于太空探索技术公司(SpaceX)开发的星链星座,该星座旨在为全球范围提供高速低延迟的宽带网络服务。作为星链系统扩容任务的组成部分,它进一步完善了星链星座的全球覆盖能力,增强了星座整体服务容量。

基本信息
目录编号:
66191
目录名称:
STARLINK-35061
国际标识:
2025-243Q
轨道中心:
EARTH
卫星名称:
星链-35061
卫星全名:
星链-35061(STARLINK-35061)
卫星状态:
在轨 (已飞行211 天)
发射日期:
2025-10-26 UTC
国别 :
美国 (US)
星等 :
--
轨道信息
数据来源 国际轨道数据
星历时间: 2026-05-25T08:04:36+0800
11小时前
查看轨道信息
半长轴: 6853.344km
偏心率: 0.0001286
轨道倾角: 53.158°
近地点辐角 83.329°
升交点赤经 251.072°
平近点角 276.786°
近地点: 474.325km
远地点: 476.089km
周期: 94.105分钟
每日圈数: 15.30203
详细信息
固有亮度:
5
最大亮度:
2.5
卫星平台:
Starlink V1.0
覆盖范围:
全球
运营商:
太空探索技术公司
运营商所在国:
美国
制造商(研发单位):
太空探索技术公司
制造商所在国:
美国
使用方式:
暂无
卫星简介
Starlink 计划是 SpaceX 推出的全球卫星互联网项目,通过发射低轨道卫星,为全球尤其是偏远地区提供高速、低延迟的互联网服务。自 2019 年起,Starlink 已部署数千颗卫星,旨在缩小全球数字鸿沟,推动互联网普及。该项目还为军事、航空等行业提供通信支持,带来广泛经济效益。
2D轨道图
3D轨道图
轨道高度分析图
轨道倾角分析图
轨道综合分析图
查看轨道综合分析图